Regional Weather Roundup
Issued by NWS Charleston, SC

Current Version | Previous Version | Graphics & Text | Print | Product List | Glossary On
Versions: 1 2 3 4 5 6 7 8 9 10 11 12 13 14 15 16 17 18 19 20 21 22 23 24 25 26 27 28 29 30 31 32 33 34 35 36 37 38 39 40 41 42 43 44 45 46 47 48 49 50
260
ASUS42 KCHS 231412
RWRCHS

REGIONAL WEATHER ROUNDUP
NATIONAL WEATHER SERVICE CHARLESTON SC
1000 AM EDT THU MAR 23 2017

NOTE: "FAIR" INDICATES FEW OR NO CLOUDS BELOW 12,000 FEET WITH NO
SIGNIFICANT WEATHER AND/OR OBSTRUCTIONS TO VISIBILITY.

NOT ALL STATIONS ARE QUALITY CONTROLLED. USE DATA WITH CAUTION...
ESPECIALLY DEWPOINT OBSERVATIONS.

SCZ027-030-031-034>040-042>050-231500-
...SOUTHEAST SOUTH CAROLINA...

CITY           SKY/WX    TMP DP  RH WIND       PRES   REMARKS
N CHARLESTON   SUNNY     55  38  52 NE12G23   30.47R
WATERFRONT PRK   N/A     54  44  69 NE22      30.43R
JOHNS ISLAND   FAIR      59  41  51 NE15G23   30.45R
PINOPOLIS        N/A     48  37  66 E14       30.41R
MONCKS CORNER  FAIR      50  27  40 NE14G21   30.50R
SUMMERVILLE    FAIR      52  36  54 NE9       30.49R
BEAUFORT MCAS  MOSUNNY   58  42  55 NE13G22   30.45R
BEAUFORT ARPT  FAIR      55  43  62 NE18      30.44R
HILTON HEAD IS SUNNY     59  46  63 NE14G23   30.42R
WALTERBORO     MOSUNNY   52  36  54 NE12      30.49R
ALLENDALE      CLOUDY    52  36  54 VRB3G13   30.47R

...SOUTHERN MIDLANDS AND PEE DEE...

CITY           SKY/WX    TMP DP  RH WIND       PRES   REMARKS
GEORGETOWN     FAIR      52  37  58 NE13G18   30.52R
KINGSTREE      FAIR      48  19  32 NE9G17    30.53R
ORANGEBURG     CLOUDY    49  26  41 NE13      30.52R
BARNWELL       FAIR      54  34  47 E13G18    30.49R
AIKEN          FAIR      46  27  46 E18       30.53R
MANNING        FAIR      46  27  46 E10G17    30.52R
COLUMBIA       MOSUNNY   50  23  34 E14G22    30.53R
SUMTER         SUNNY     48  22  36 NE14G21   30.52R
FLORENCE       SUNNY     46  25  43 E15       30.56R
MYRTLE BEACH   SUNNY     50  32  50 NE17      30.54R
N MYRTLE BEACH SUNNY     49  31  49 NE15G24   30.53R

$$

GAZ063-065-086>088-099>101-113>116-118-119-134>141-150-231500-
...SOUTHEAST GEORGIA...

CITY           SKY/WX    TMP DP  RH WIND       PRES   REMARKS
SAVANNAH ARPT  CLOUDY    58  42  55 NE13      30.43R
HUNTER AAF     PTSUNNY   60  46  60 NE8       30.40R
FORT STEWART   CLOUDY    60  45  58 NE14      30.39R
STATESBORO     CLOUDY    55  42  62 NE6G16    30.44R
SYLVANIA       MOSUNNY  N/A N/A N/A E13G18    30.46R
CLAXTON        PTSUNNY   55  55 100 NE15G21   30.43R

...CSRA...CENTRAL AND FAR SOUTHEAST GEORGIA...

CITY           SKY/WX    TMP DP  RH WIND       PRES   REMARKS
THOMSON        CLOUDY    50  28  43 MISG      30.54R
AUGUSTA-BUSH   CLOUDY    53  29  39 E13       30.49R
AUGUSTA-DANIEL PTSUNNY   51  22  31 E13G22    30.49R
SWAINSBORO     CLOUDY    54  37  54 E10G20    30.45R
VIDALIA        CLOUDY    55  43  62 E14       30.42R
EASTMAN        CLOUDY    60  38  44 E9G18     30.43R
HAZLEHURST     PTSUNNY   59  49  70 E6G18     30.39R
ALMA           CLOUDY    59  50  72 E10G20    30.37R
WAYCROSS       CLOUDY    64  56  76 E14G21    30.36R
JESUP          CLOUDY    61  48  63 E13G20    30.39R
BAXLEY         CLOUDY    59  52  77 E12G20    30.39R
BRUNSWICK      CLOUDY    63  55  77 NE14G21   30.38R
SAINT SIMONS   CLOUDY    63  53  70 NE17G23   30.36R

$$

SCZ027-028-034-036>038-045-046-048>050-GAZ119-141-231500-
...LAKE AND SUPPLEMENTAL COASTAL OBSERVATIONS...

STATION/POSITION TIME  TEMP    WIND        PRES    WAVE   SWELL
                       AIR SEA DIR/SP/G            HT/PER HT/PER/DIR
                 (UTC) (F)     (DEG/KT/KT) (MB)    (FT/S) (FT/S/D)
WINYAH BAY       NOT AVBL
LAKE MURRAY      1320   46      70/ 10/ 18 1032.8
ACE BASIN NERRS  NOT AVBL
FORT PULASKI     1348   58 61   70/ 20/ 26 1030.1R
SAPELO ISLAND    1300   61      50/ 15     1027.0

$$

ANZ835-935-AMZ111-154-330-350-352-354-370-450-454-472-231500-
...C-MAN AND BUOY OBSERVATIONS...

STATION/POSITION TIME  TEMP    WIND        PRES    WAVE   SWELL
                       AIR SEA DIR/SP/G            HT/PER HT/PER/DIR
                 (UTC) (F)     (DEG/KT/KT) (MB)    (FT/S) (FT/S/D)
BUOY 41004       1350   60 68   50/ 21/ 27 1029.7R   8/ 8   3/ 70/ 8
BUOY 41008       1250   63 62   70/ 19/ 25 1026.3    7/ 7   5/ 80/ 7
FOLLY BEACH CMAN 1300   56      50/ 25/ 28 1030.9R
CAPERS NEARSHORE 1308   56      70/ 21/ 27 1030.5R
FRIPP NEARSHORE  1308   58 60   60/ 23/ 31 1029.6R


STATION/POSITION TIME  TEMP    WIND        PRES    WAVE   SWELL
                       AIR SEA DIR/SP/G            HT/PER HT/PER/DIR
                 (UTC) (F)     (DEG/KT/KT) (MB)    (FT/S) (FT/S/D)
5E ST. MARYS GA  1330      63                N/A     5/ 7   2/ 90/11
FRYING PAN BUOY  1350   55 63   50/ 19/ 25 1032.5R   7/ 6   3/110/10
BUOY 41025       1350   45 72   30/ 19/ 27 1034.9R   9/ 9
CAPE LOOKOUT NC  1300   44      30/ 21/ 24 1033.9R
BUOY 41002       1350   61 71   30/ 21/ 25 1028.3R   8/10   7/ 40/10
BUOY 41010       NOT AVBL
ST AUGUSTINE FL  1400   67 65   80/ 16/ 18 1026.8R


$$




USA.gov is the U.S. government's official web portal to all federal, state and local government web resources and services.